Weather History for Big Bear City, CA

Change the Weather History Date:

Wednesday, January 8, 2014

  Actual Average (KBUO) Record (KBUO)
Temperature  
Mean Temperature 38 °F -  
Max Temperature 53 °F 59 °F 68 °F (1999)
Min Temperature 23 °F 40 °F 32 °F (1997)
Degree Days  
Heating Degree Days 27    
Moisture  
Dew Point 9 °F    
Average Humidity 39    
Maximum Humidity 64    
Minimum Humidity 9    
Precipitation  
Precipitation 0.00 in - - ()
Sea Level Pressure  
Sea Level Pressure 30.16 in    
Wind  
Wind Speed 3 mph (WSW)    
Max Wind Speed 8 mph    
Max Gust Speed -    
Visibility 9 miles    
Events      
Averages and records for this station are not official NWS values.
T = Trace of Precipitation, MM = Missing Value Source: NWS Daily Summary

Daily Weather History Graph

Daily Weather History Graph

Search for Another Location

Airport:

Trip Planner

Search our weather history database for the weather conditions in past years. The results will help you decide how hot, cold, wet, or windy it might be!

Date:

Astronomy

Jan. 08, 2014 Rise Set
Actual Time 6:54 AM PST 4:54 PM PST
Civil Twilight 6:26 AM PST 5:22 PM PST
Nautical Twilight 5:55 AM PST 5:53 PM PST
Astronomical Twilight 5:25 AM PST 6:23 PM PST
Moon 11:41 AM PST (1/8) 12:13 AM PST (1/8)
Length of Visible Light 10h 55m
Length of Day
10h 00m
First Quarter, 57% of the Moon is Illuminated
Jan 8
First Quarter
Jan 15
Full
Jan 23
Last Quarter
Jan 30
New
Feb 6
First Quarter

Hourly Weather History & Observations

Time (PST) Temp. Windchill Dew Point Humidity Pressure Visibility Wind Dir Wind Speed Gust Speed Precip Events Conditions
12:15 AM 26.6 °F 21.2 °F 15.8 °F 64% 30.18 in 10.0 mi West 4.6 mph - N/A   Clear
12:35 AM 26.6 °F 21.2 °F 14.0 °F 59% 30.17 in 7.0 mi West 4.6 mph - N/A   Clear
12:55 AM 28.4 °F 22.2 °F 15.8 °F 59% 30.17 in 10.0 mi West 5.8 mph - N/A   Clear
1:15 AM 26.6 °F 21.2 °F 12.2 °F 55% 30.17 in 10.0 mi West 4.6 mph - N/A   Clear
1:35 AM 26.6 °F 21.2 °F 14.0 °F 59% 30.17 in 10.0 mi WSW 4.6 mph - N/A   Clear
1:55 AM 26.6 °F 20.0 °F 14.0 °F 59% 30.17 in 10.0 mi West 5.8 mph - N/A   Clear
2:15 AM 26.6 °F 22.6 °F 12.2 °F 55% 30.17 in 10.0 mi West 3.5 mph - N/A   Clear
2:35 AM 26.6 °F - 12.2 °F 55% 30.18 in 10.0 mi Calm Calm - N/A   Clear
2:55 AM 26.6 °F - 10.4 °F 51% 30.17 in 10.0 mi Calm Calm - N/A   Clear
3:15 AM 24.8 °F - 12.2 °F 59% 30.18 in 10.0 mi Calm Calm - N/A   Clear
3:35 AM 24.8 °F - 10.4 °F 54% 30.17 in 7.0 mi Calm Calm - N/A   Clear
3:55 AM 23.0 °F - 10.4 °F 59% 30.16 in 10.0 mi Calm Calm - N/A   Clear
4:15 AM 23.0 °F - 10.4 °F 59% 30.16 in 10.0 mi Calm Calm - N/A   Clear
4:35 AM 23.0 °F - 12.2 °F 63% 30.16 in 10.0 mi Calm Calm - N/A   Clear
4:55 AM 23.0 °F - 8.6 °F 54% 30.15 in 4.0 mi Calm Calm - N/A   Haze
5:15 AM 26.6 °F 22.6 °F 8.6 °F 47% 30.15 in 10.0 mi South 3.5 mph - N/A   Clear
5:35 AM 24.8 °F - 8.6 °F 50% 30.16 in 10.0 mi Calm Calm - N/A   Clear
5:55 AM 23.0 °F - 10.4 °F 59% 30.16 in 10.0 mi Calm Calm - N/A   Clear
6:15 AM 24.8 °F - 10.4 °F 54% 30.15 in 7.0 mi Calm Calm - N/A   Clear
6:35 AM 24.8 °F - 8.6 °F 50% 30.16 in 10.0 mi Calm Calm - N/A   Clear
6:55 AM 24.8 °F - 8.6 °F 50% 30.16 in 10.0 mi Calm Calm - N/A   Clear
7:15 AM 24.8 °F - 8.6 °F 50% 30.16 in 10.0 mi Calm Calm - N/A   Clear
7:35 AM 26.6 °F - 8.6 °F 47% 30.17 in 10.0 mi Calm Calm - N/A   Clear
7:55 AM 28.4 °F - 10.4 °F 47% 30.17 in 7.0 mi Calm Calm - N/A   Clear
8:15 AM 30.2 °F - 10.4 °F 44% 30.17 in 10.0 mi Calm Calm - N/A   Clear
8:35 AM 33.8 °F - 10.4 °F 38% 30.19 in 10.0 mi Calm Calm - N/A   Clear
8:55 AM 37.4 °F - 12.2 °F 36% 30.20 in 7.0 mi Calm Calm - N/A   Clear
9:15 AM 44.6 °F 43.1 °F 6.8 °F 21% 30.21 in 10.0 mi WSW 3.5 mph - N/A   Clear
9:35 AM 46.4 °F 44.3 °F 3.2 °F 17% 30.22 in 10.0 mi WSW 4.6 mph - N/A   Clear
9:55 AM 46.4 °F 44.3 °F 5.0 °F 18% 30.22 in 10.0 mi WSW 4.6 mph - N/A   Clear
10:15 AM 48.2 °F - 3.2 °F 16% 30.21 in 10.0 mi SW 5.8 mph - N/A   Clear
10:35 AM 50.0 °F - 6.8 °F 17% 30.21 in 10.0 mi SW 5.8 mph - N/A   Clear
10:55 AM 50.0 °F - 6.8 °F 17% 30.20 in 10.0 mi SW 5.8 mph - N/A   Clear
11:15 AM 50.0 °F - 8.6 °F 19% 30.19 in 10.0 mi SW 6.9 mph - N/A   Clear
11:35 AM 50.0 °F - 5.0 °F 16% 30.18 in 10.0 mi WSW 6.9 mph - N/A   Clear
11:55 AM 50.0 °F - 8.6 °F 19% 30.17 in 10.0 mi SSW 4.6 mph - N/A   Clear
12:15 PM 50.0 °F - 8.6 °F 19% 30.16 in 10.0 mi SW 5.8 mph - N/A   Clear
12:35 PM 51.8 °F - 6.8 °F 16% 30.15 in 10.0 mi West 8.1 mph - N/A   Clear
12:55 PM 51.8 °F - 6.8 °F 16% 30.14 in 10.0 mi West 8.1 mph - N/A   Clear
1:15 PM 51.8 °F - 8.6 °F 18% 30.13 in 10.0 mi West 8.1 mph - N/A   Clear
1:35 PM 53.6 °F - 8.6 °F 16% 30.13 in 10.0 mi West 6.9 mph - N/A   Clear
1:55 PM 53.6 °F - 8.6 °F 16% 30.12 in 10.0 mi West 8.1 mph - N/A   Clear
2:15 PM 53.6 °F - 3.2 °F 13% 30.12 in 10.0 mi West 8.1 mph - N/A   Clear
2:35 PM 53.6 °F - 1.4 °F 12% 30.12 in 10.0 mi West 3.5 mph - N/A   Clear
2:55 PM 53.6 °F - -4.0 °F 9% 30.12 in 10.0 mi SW 8.1 mph - N/A   Clear
3:15 PM 51.8 °F - -0.4 °F 12% 30.12 in 10.0 mi WSW 5.8 mph - N/A   Clear
3:35 PM 51.8 °F - -0.4 °F 12% 30.13 in 10.0 mi West 6.9 mph - N/A   Clear
3:55 PM 51.8 °F - -0.4 °F 12% 30.13 in 10.0 mi WSW 4.6 mph - N/A   Clear
4:15 PM 50.0 °F - 3.2 °F 15% 30.14 in 10.0 mi WSW 5.8 mph - N/A   Clear
4:35 PM 46.4 °F 44.3 °F 5.0 °F 18% 30.14 in 10.0 mi SW 4.6 mph - N/A   Clear
4:55 PM 44.6 °F - 6.8 °F 21% 30.14 in 10.0 mi Calm Calm - N/A   Clear
5:15 PM 41.0 °F - 12.2 °F 31% 30.14 in 10.0 mi Calm Calm - N/A   Clear
5:35 PM 37.4 °F - 12.2 °F 36% 30.15 in 10.0 mi Calm Calm - N/A   Clear
5:55 PM 35.6 °F - 12.2 °F 38% 30.16 in 10.0 mi Calm Calm - N/A   Clear
6:15 PM 33.8 °F - 12.2 °F 41% 30.15 in 7.0 mi Calm Calm - N/A   Clear
6:35 PM 32.0 °F - 12.2 °F 44% 30.15 in 2.0 mi Calm Calm - N/A   Haze
6:55 PM 32.0 °F - 12.2 °F 44% 30.15 in 3.0 mi Calm Calm - N/A   Haze
7:15 PM 32.0 °F - 12.2 °F 44% 30.15 in 7.0 mi Calm Calm - N/A   Clear
7:35 PM 30.2 °F - 10.4 °F 44% 30.16 in 10.0 mi Calm Calm - N/A   Clear
7:55 PM 30.2 °F - 12.2 °F 47% 30.16 in 10.0 mi Calm Calm - N/A   Clear
8:15 PM 30.2 °F - 12.2 °F 47% 30.17 in 10.0 mi Calm Calm - N/A   Clear
8:35 PM 30.2 °F - 12.2 °F 47% 30.17 in 5.0 mi Calm Calm - N/A   Haze
8:55 PM 28.4 °F - 10.4 °F 47% 30.16 in 7.0 mi Calm Calm - N/A   Clear
9:15 PM 30.2 °F - 12.2 °F 47% 30.17 in 10.0 mi Calm Calm - N/A   Clear
9:35 PM 30.2 °F - 12.2 °F 47% 30.17 in 10.0 mi Calm Calm - N/A   Clear
9:55 PM 30.2 °F - 12.2 °F 47% 30.18 in 10.0 mi Calm Calm - N/A   Clear
10:15 PM 28.4 °F - 12.2 °F 51% 30.18 in 10.0 mi Calm Calm - N/A   Clear
10:35 PM 28.4 °F - 12.2 °F 51% 30.18 in 10.0 mi Calm Calm - N/A   Clear
10:55 PM 28.4 °F - 12.2 °F 51% 30.18 in 7.0 mi Calm Calm - N/A   Clear
11:15 PM 28.4 °F - 12.2 °F 51% 30.17 in 10.0 mi Calm Calm - N/A   Clear
11:35 PM 28.4 °F - 12.2 °F 51% 30.17 in 10.0 mi Calm Calm - N/A   Clear
11:55 PM 28.4 °F - 12.2 °F 51% 30.17 in 10.0 mi Calm Calm - N/A   Clear